Location: Ramillies
(50.6368°N, 4.9145°E)
Time: 20:52:03
(UTC+02:00)

ISS - Visible Passes

Search period start: 20 July 2017 00:00
Search period end: 30 July 2017 00:00
Orbit: 400 x 408 km, 51.6° (Epoch: 20 July)

Date Brightness Start Highest point End Pass type
(mag) Time Alt. Az. Time Alt. Az. Time Alt. Az.
20 Jul -2.3 01:20:15 24° E 01:20:15 24° E 01:21:48 10° E visible
20 Jul -3.7 02:52:51 19° W 02:55:03 75° N 02:58:20 10° E visible
20 Jul -3.9 04:28:21 10° WNW 04:31:38 89° SSW 04:34:55 10° ESE visible
21 Jul -1.2 00:29:21 10° E 00:29:21 10° E 00:29:23 10° E visible
21 Jul -3.9 02:01:57 49° W 02:02:44 87° N 02:06:00 10° ENE visible
21 Jul -3.7 03:36:02 10° W 03:39:18 77° N 03:42:35 10° E visible
22 Jul -3.9 01:10:42 66° ESE 01:10:42 66° ESE 01:13:40 10° ENE visible
22 Jul -3.6 02:43:41 10° W 02:46:57 72° N 02:50:13 10° E visible
22 Jul -3.9 04:20:12 10° WNW 04:23:26 62° SSW 04:26:40 10° ESE visible
22 Jul -2.0 22:40:43 10° SSE 22:42:13 13° SE 22:43:44 10° ESE visible
23 Jul -3.8 00:14:57 10° SW 00:18:07 52° SSE 00:21:19 10° E visible
23 Jul -3.7 01:51:18 10° W 01:54:33 73° N 01:57:50 10° E visible
23 Jul -4.0 03:27:51 10° WNW 03:31:08 83° SSW 03:34:24 10° ESE visible
23 Jul -2.7 05:04:35 10° W 05:07:19 24° SW 05:10:01 10° SSE visible
23 Jul -3.3 23:22:52 10° SW 23:25:52 35° SSE 23:28:53 10° E visible
24 Jul -3.9 00:58:55 10° W 01:02:11 82° N 01:05:28 10° ENE visible
24 Jul -3.8 02:35:30 10° WNW 02:38:46 81° N 02:42:02 10° E visible
24 Jul -3.3 04:12:04 10° W 04:15:06 37° SSW 04:18:09 10° SE visible
24 Jul -2.7 22:31:01 10° SSW 22:33:39 23° SE 22:36:19 10° E visible
25 Jul -4.0 00:06:34 10° WSW 00:09:49 81° SSE 00:13:05 10° ENE visible
25 Jul -3.7 01:43:06 10° W 01:46:22 73° N 01:49:38 10° E visible
25 Jul -3.8 03:19:38 10° WNW 03:22:50 54° SSW 03:26:02 10° SE visible
25 Jul -2.0 04:57:05 10° WSW 04:58:45 13° SW 05:00:27 10° S visible
25 Jul -3.9 23:14:16 10° WSW 23:17:29 59° SSE 23:20:42 10° ENE visible
26 Jul -3.7 00:50:42 10° W 00:53:57 72° N 00:56:32 15° E visible
26 Jul -2.6 02:27:14 10° WNW 02:29:04 30° W 02:29:04 30° W visible
26 Jul -3.4 22:22:06 10° SW 22:25:10 40° SSE 22:28:15 10° E visible
26 Jul -3.8 23:58:16 10° W 00:01:32 78° N 00:04:48 10° E visible
27 Jul -3.6 01:34:50 10° WNW 01:37:40 64° WNW 01:37:40 64° WNW visible
27 Jul -3.9 23:05:51 10° WSW 23:09:08 87° SSE 23:12:23 10° ENE visible
28 Jul -3.7 00:42:25 10° W 00:45:41 75° N 00:46:37 42° E visible
28 Jul -1.2 02:18:56 10° W 02:19:14 12° W 02:19:14 12° W visible
28 Jul -3.9 22:13:29 10° WSW 22:16:43 66° SSE 22:19:58 10° ENE visible
28 Jul -3.6 23:49:58 10° W 23:53:14 71° N 23:55:42 16° E visible
29 Jul -2.4 01:26:29 10° WNW 01:28:19 30° W 01:28:19 30° W visible
29 Jul -3.7 22:57:30 10° W 23:00:46 75° N 23:04:01 10° E visible
